Location: Meanaryar
(48.4161°N, 4.7315°W)
Time: 01:32:52
(UTC+00:00)

Cosmos 1833 Rocket - Pass Details

Date: 18 September 2020
Orbit: 831 x 841 km, 71.0° (Epoch: 29 October)

Event Time Altitude Azimuth Distance (km) Brightness Sun altitude
Rises 19:58:16 0° 336° (NNW) 3,407 6.6 -16.0°
Reaches altitude 10° 20:01:23 10° 353° (N) 2,470 5.5 -16.5°
Maximum altitude 20:05:33 21° 41° (NE) 1,836 4.3 -17.1°
Enters shadow 20:07:33 17° 68° (ENE) 1,999 4.3 -17.4°
